Regional Weather Roundup
Issued by NWS

Home | Current Version | Previous Version | Graphics & Text | Print | Product List | Glossary Off
Versions: 1 2 3 4 5 6 7 8 9 10 11 12 13 14 15 16 17 18 19 20 21 22 23 24 25 26 27 28 29 30 31 32 33 34 35 36 37 38 39 40 41 42 43 44 45 46 47 48 49 50

000
ASUS43 KTOP 130359
RWRKS

WEATHER ROUNDUP FOR KANSAS
NATIONAL WEATHER SERVICE GOODLAND KS
1000 PM CST FRI FEB 12 2016

NOTE:  "FAIR" INDICATES FEW OR NO CLOUDS BELOW 12,000 FEET WITH NO
SIGNIFICANT WEATHER AND/OR OBSTRUCTIONS TO VISIBILITY.

KSZ001>006-013>018-027>032-041>047-130500-
NORTHWEST KANSAS

CITY           SKY/WX    TMP DP  RH WIND       PRES   REMARKS
GOODLAND       CLOUDY    29  27  92 SE15G21   30.38S WCI  18
HAYS           CLOUDY    28  16  59 E15       30.50S WCI  17
HILL CITY      CLOUDY    28  25  88 E13       30.48F WCI  17
RUSSELL        CLOUDY    27  21  78 NE12      30.50R WCI  17
$$

KSZ061>065-074>080-084>089-130500-
SOUTHWEST KANSAS

CITY           SKY/WX    TMP DP  RH WIND       PRES   REMARKS
DODGE CITY     CLOUDY    27  23  85 E8        30.42S
ELKHART          N/A     35  22  59 SE16        N/A  WCI  25
GARDEN CITY    CLOUDY    28  24  85 E12       30.40R WCI  18
GREAT BEND     CLOUDY    30  19  64 E13       30.52R WCI  20
LIBERAL        CLEAR     34  23  64 E16       30.38R WCI  23
$$

KSZ066>073-081>083-090>101-130500-
SOUTHEAST KANSAS

CITY           SKY/WX    TMP DP  RH WIND       PRES   REMARKS
CHANUTE        CLOUDY    32  14  47 N10       30.54R WCI  24
COFFEYVILLE    CLOUDY    32  18  56 NE9       30.52R
HUTCHINSON     CLOUDY    32  21  64 NE9       30.53R
MEDICINE LODGE   N/A     35  26  69 NE12      30.49R WCI  27
NEWTON         CLOUDY    30  18  59 N12G18    30.54R WCI  21
PARSONS        CLEAR     33  17  51 N8        30.53R
WICHITA INTL   CLOUDY    34  21  59 NE15      30.51R WCI  24
WICHITA JABRA  CLOUDY    32  20  61 N10       30.52R WCI  24
WINFIELD       CLOUDY    36  22  56 NE12      30.50R WCI  28
$$

KSZ007>012-019>026-033>040-048>060-102>105-130500-
NORTHEAST KANSAS

CITY           SKY/WX    TMP DP  RH WIND       PRES   REMARKS
CONCORDIA      CLOUDY    24  15  68 NE12      30.57R WCI  13
EMPORIA        CLOUDY    28  13  53 NE12      30.55R WCI  18
LAWRENCE       CLOUDY    24   8  50 N12       30.60R WCI  13
MANHATTAN      CLOUDY    27  12  53 NE13      30.59R WCI  16
OLATHE IND     CLOUDY    23   6  48 N15       30.58R WCI  10
OLATHE EXE     CLEAR     22   6  50 N14       30.57R WCI   9
SALINA         CLOUDY    31  15  52 NE10      30.56R WCI  22
TOPEKA BILLARD CLOUDY    24   7  48 N15       30.61R WCI  11
TOPEKA FORBES  CLOUDY    25   8  48 N14       30.59R WCI  13
$$



USA.gov is the U.S. government's official web portal to all federal, state and local government web resources and services.